Location: Spondin
(51.8528°N, 111.6118°W)
Time: 04:11:09
(UTC+00:00)

Envisat - Visible Passes

Search period start: 01 December 2023 00:00
Search period end: 11 December 2023 00:00
Orbit: 762 x 764 km, 98.3° (Epoch: 30 November)

Date Brightness Start Highest point End Pass type
(mag) Time Alt. Az. Time Alt. Az. Time Alt. Az.
01 Dec 5.1 12:28:11 10° N 12:28:51 13° N 12:28:51 13° N visible
02 Dec 5.3 11:50:33 10° N 11:51:04 13° N 11:51:04 13° N visible
03 Dec 5.7 11:13:11 10° NNE 11:13:17 11° NNE 11:13:17 11° NNE visible
03 Dec 5.2 12:53:08 10° N 12:53:26 11° NNW 12:53:26 11° NNW visible
04 Dec 5.3 12:15:16 10° N 12:15:40 12° N 12:15:40 12° N visible
05 Dec 5.5 11:37:44 10° N 11:37:54 11° N 11:37:54 11° N visible
06 Dec 5.3 12:40:07 10° N 12:40:16 11° N 12:40:16 11° N visible
07 Dec 5.4 12:02:23 10° N 12:02:31 11° N 12:02:31 11° N visible
